Probability
0 0 0 0 0 0 0 0 0 0 0 0 0 0 0 0 0 0 0 0 0 0 0 0 0 0 0 0 0 0 0 0 0 0 0 0 0 0 0 0 0 0 0 0
0 0 0 0 0 0 0 0 0 0 0 0 0 0 0 0 0 0 0 0 0 0 0 0 0 0 0 0 0 0 0 0 0 0 0 0 0 0 0 0 0 0 0 0
0 0 0 0 0 0 0 0 0 0 0 0 0 0 0 0 0 0 0 0 0 0 0 0 0 0 0 0 0 0 0 0 0 0 0 0 0 0 0 0 0 0 0 0
0 0 0 0 0 0 0 0 0 0 0 0 0 0 0 0 0 0 0 0 0 0 0 0 0 0 0 0 0 0 0 0 0 0 0 0 0 0 0 0 0 0 0 0
0 0 0 0 0 0 0 0 0 0 0 0 0 0 0 0 0 0 0 0 0 0 0 0 0 0 0 0 0 0 0 0 0 0 0 0 0 0 0 0 0 0 0 0
0 0 0 0 0 0 0 0 0 0 0 0 0 0 0 0 0 0 0 0 0 0 0 0 0 0 0 0 0 0 0 0 0 0 0 0 0 0 0 0 0 0 0 0
0 0 0 0 0 0 0 0 0 0 0 0 0 0 0 0 0 0 0 0 0 0 0 0 0 0 0 0 0 0 0 0 0 0 0 0 0 0 0 0 0 0 0 0
0 0 0 0 0 0 0 0 0 0 0 0 0 0 0 0 0 0 0 0 0 0 0 0 0 0 0 0 0 0 0 0 0 0 0 0 0 0 0 0 0 0 0 0
0 0 0 0 0 0 0 0 0 0 0 0 0 0 0 0 0 0 0 0 0 0 0 0 0 0 0 0 0 0 0 0 0 0 0 0 0 0 0 0 0 0 0 0
0 0 0 0 0 0 0 0 0 0 0 0 0 0 0 0 0 0 0 0 0 0 0 0 0 0 0 0 0 0 0 0 0 0 0 0 0 0 0 0 0 0 0 0
0 0 0 0 0 0 0 0 0 0 0 0 0 0 0 0 0 0 0 0 0 0 0 0 0 0 0 0 0 0 0 0 0 0 0 0 0 0 0 0 0 0 0 0
0 0 0 0 0 0 0 0 0 0 0 0 0 0 0 0 0 0 0 0 0 0 0 0 0 0 0 0 0 0 0 0 0 0 0 0 0 0 0 0 0 0 0 0
0 0 0 0 0 0 0 0 0 0 0 0 0 0 0 0 0 0 0 0 0 0 0 0 0 0 0 0 0 0 0 0 0 0 0 0 0 0 0 0 0 0 0 0
0 0 0 0 0 0 0 0 0 0 0 0 0 0 0 0 0 0 0 0 0 0 0 0 0 0 0 0 0 0 0 0 0 0 0 0 0 0 0 0 0 0 0 0
0 0 0 0 0 0 0 0 0 0 0 0 0 0 0 0 0 0 0 0 0 0 0 0 0 0 0 0 0 0 0 0 0 0 0 0 0 0 0 0 0 0 0 0
0 0 0 0 0 0 0 0 0 0 0 0 0 0 0 0 0 0 0 0 0 0 0 0 0 0 0 0 0 0 0 0 0 0 0 0 0 0 0 0 0 0 0 0
0 0 0 0 0 0 0 0 0 0 0 0 0 0 0 0 0 0 0 0 0 0 0 0 0 0 0 0 0 0 0 0 0 0 0 0 0 0 0 0 0 0 0 0
0 0 0 0 0 0 0 0 0 0 0 0 0 0 0 0 0 0 0 0 0 0 0 0 0 0 0 0 0 0 0 0 0 0 0 0 0 0 0 0 0 0 0 0
0 0 0 0 0 0 0 0 0 0 0 0 0 0 0 0 0 0 0 0 0 0 0 0 0 0 0 0 0 0 0 0 0 0 0 0 0 0 0 0 0 0 0 0
0 0 0 0 0 0 0 0 0 0 0 0 0 0 0 0 0 0 0 0 0 0 0 0 0 0 0 0 0 0 0 0 0 0 0 0 0 0 0 0 0 0 0 0
0 0 0 0 0 0 0 0 0 0 0 0 0 0 0 0 0 0 0 0 0 0 0 0 0 0 0 0 0 0 0 0 0 0 0 0 0 0 0 0 0 0 0 0
0 0 0 0 0 0 0 0 0 0 0 0 0 0 0 0 0 0 0 0 0 0 0 0 0 0 0 0 0 0 0 0 0 0 0 0 0 0 0 0 0 0 0 0
0 0 0 0 0 0 0 0 0 0 0 0 0 0 0 0 0 0 0 0 0 0 0 0 0 0 0 0 0 0 0 0 0 0 0 0 0 0 0 0 0 0 0 0
0 0 0 0 0 0 0 0 0 0 0 0 0 0 0 0 0 0 0 0 0 0 0 0 0 0 0 0 0 0 0 0 0 0 0 0 0 0 0 0 0 0 0 0
0 0 0 0 0 0 0 0 0 0 0 0 0 0 0 0 0 0 0 0 0 0 0 0 0 0 0 0 0 0 0 0 0 0 0 0 0 0 0 0 0 0 0 0
0 0 0 0 0 0 0 0 0 0 0 0 0 0 0 0 0 0 0 0 0 0 0 0 0 0 0 0 0 0 0 0 0 0 0 0 0 0 0 0 0 0 0 0
Height
5838 5840 5841 5842 5842 5842 5842 5842 5841 5841 5840 5840 5839 5838 5838 5837 5837 5837 5836 5836 5835 5835 5834 5833 5832 5831 5829 5828 5826 5824 5822 5820 5818 5816 5813 5811 5809 5806 5804 5801 5799 5796 5794 5792
5834 5835 5836 5836 5837 5837 5837 5837 5836 5836 5835 5835 5834 5833 5832 5832 5832 5832 5831 5831 5830 5830 5829 5828 5827 5826 5824 5822 5820 5818 5816 5814 5811 5808 5806 5803 5801 5798 5796 5793 5790 5788 5785 5783
5827 5830 5830 5831 5832 5832 5832 5832 5831 5831 5830 5830 5829 5829 5828 5827 5827 5827 5827 5826 5826 5825 5824 5823 5822 5820 5818 5816 5814 5812 5809 5806 5804 5801 5798 5795 5793 5790 5788 5785 5782 5780 5777 5774
5821 5823 5825 5826 5826 5826 5827 5827 5826 5826 5826 5826 5826 5825 5824 5823 5823 5822 5822 5821 5821 5820 5819 5818 5816 5814 5812 5810 5807 5805 5802 5799 5796 5794 5791 5788 5785 5783 5780 5777 5775 5772 5769 5766
5816 5818 5819 5820 5821 5821 5822 5821 5822 5821 5821 5821 5821 5820 5821 5819 5818 5818 5817 5817 5816 5815 5813 5812 5810 5807 5805 5803 5800 5798 5795 5792 5789 5786 5784 5781 5778 5776 5773 5770 5767 5764 5761 5758
5810 5812 5813 5815 5815 5816 5816 5817 5817 5816 5816 5817 5817 5816 5816 5815 5814 5813 5813 5812 5810 5809 5807 5805 5803 5801 5798 5796 5793 5790 5788 5785 5782 5779 5777 5774 5771 5769 5766 5763 5759 5756 5752 5749
5804 5806 5807 5809 5810 5811 5811 5812 5812 5812 5812 5813 5812 5811 5812 5811 5809 5808 5807 5806 5805 5803 5801 5799 5796 5794 5791 5788 5786 5783 5780 5777 5775 5772 5770 5767 5764 5761 5758 5755 5751 5747 5743 5739
5798 5801 5802 5803 5804 5805 5805 5807 5808 5808 5808 5807 5807 5807 5808 5805 5804 5803 5802 5800 5798 5796 5794 5792 5789 5787 5784 5781 5778 5776 5773 5770 5767 5765 5762 5759 5756 5753 5749 5746 5742 5737 5733 5728
5791 5794 5796 5797 5798 5799 5800 5801 5801 5802 5801 5802 5802 5802 5802 5800 5798 5797 5795 5794 5792 5789 5787 5784 5782 5779 5776 5773 5771 5768 5765 5762 5759 5756 5753 5750 5747 5743 5740 5735 5731 5726 5721 5716
5785 5788 5790 5791 5792 5793 5795 5795 5796 5795 5795 5796 5797 5797 5796 5794 5792 5791 5789 5787 5785 5782 5780 5777 5774 5771 5768 5765 5763 5759 5756 5753 5750 5747 5744 5740 5737 5733 5728 5724 5719 5714 5708 5702
5779 5782 5784 5786 5787 5788 5789 5790 5789 5789 5790 5790 5790 5793 5790 5787 5785 5783 5781 5779 5777 5775 5772 5769 5766 5763 5760 5757 5754 5751 5747 5744 5741 5737 5734 5730 5726 5721 5716 5711 5705 5699 5693 5686
5773 5776 5777 5780 5781 5782 5783 5784 5784 5784 5784 5783 5783 5787 5782 5780 5777 5775 5774 5772 5769 5767 5764 5760 5757 5754 5751 5748 5745 5741 5738 5734 5731 5727 5723 5718 5713 5708 5703 5697 5691 5684 5677 5669
5767 5770 5772 5774 5776 5776 5776 5777 5777 5777 5777 5776 5776 5779 5774 5771 5769 5767 5766 5763 5761 5758 5755 5751 5748 5745 5742 5738 5735 5731 5728 5724 5720 5715 5711 5706 5701 5695 5689 5682 5675 5668 5660 5652
5761 5764 5767 5768 5768 5769 5770 5770 5770 5769 5769 5768 5769 5769 5767 5763 5760 5759 5757 5754 5752 5749 5745 5742 5738 5735 5732 5728 5725 5721 5717 5713 5708 5703 5698 5693 5687 5681 5674 5667 5659 5651 5642 5633
5754 5757 5759 5760 5761 5761 5763 5764 5763 5762 5761 5760 5760 5760 5758 5754 5752 5750 5747 5745 5742 5739 5735 5732 5728 5725 5721 5718 5714 5710 5706 5701 5696 5691 5685 5679 5673 5666 5659 5651 5642 5633 5624 5614
5747 5750 5751 5752 5753 5753 5754 5756 5755 5754 5753 5751 5750 5750 5748 5745 5743 5740 5738 5735 5732 5728 5725 5722 5718 5714 5711 5707 5703 5699 5694 5689 5683 5678 5672 5665 5658 5651 5642 5634 5625 5615 5605 5594
5740 5742 5743 5744 5745 5744 5747 5749 5747 5746 5745 5743 5741 5740 5737 5736 5733 5730 5728 5725 5722 5718 5715 5711 5707 5704 5700 5696 5692 5687 5682 5676 5670 5664 5657 5650 5642 5634 5625 5616 5606 5596 5585 5574
5733 5734 5734 5735 5737 5736 5741 5740 5738 5736 5736 5734 5731 5729 5727 5725 5722 5720 5717 5714 5711 5707 5704 5700 5696 5692 5688 5684 5680 5674 5669 5663 5657 5650 5643 5634 5626 5617 5608 5598 5587 5576 5565 5553
5725 5726 5726 5726 5725 5726 5730 5730 5728 5726 5726 5724 5721 5718 5716 5713 5711 5709 5706 5703 5700 5696 5693 5689 5685 5681 5677 5672 5667 5662 5656 5649 5642 5635 5627 5618 5609 5600 5590 5579 5568 5556 5544 5532
5716 5717 5717 5717 5716 5716 5721 5720 5717 5716 5715 5714 5711 5708 5705 5703 5701 5698 5694 5691 5688 5685 5681 5677 5673 5669 5664 5659 5654 5648 5642 5635 5627 5619 5611 5601 5591 5581 5570 5559 5548 5535 5523 5510
5707 5707 5708 5707 5705 5706 5709 5707 5706 5706 5705 5702 5699 5697 5695 5692 5690 5687 5683 5679 5676 5673 5669 5665 5661 5656 5651 5646 5641 5634 5627 5620 5612 5603 5594 5584 5573 5562 5551 5540 5528 5515 5502 5490
5697 5698 5698 5698 5696 5698 5697 5696 5695 5693 5692 5690 5688 5686 5684 5681 5678 5674 5671 5667 5664 5661 5657 5653 5649 5643 5638 5632 5626 5620 5612 5604 5596 5587 5578 5567 5556 5544 5532 5520 5508 5494 5481 5469
5687 5689 5688 5689 5690 5688 5686 5684 5682 5681 5680 5678 5676 5674 5672 5669 5666 5662 5659 5656 5652 5649 5645 5640 5636 5630 5624 5617 5611 5604 5596 5587 5579 5570 5559 5548 5537 5525 5512 5500 5488 5475 5461 5448
5677 5677 5678 5678 5677 5676 5674 5672 5671 5669 5668 5666 5664 5661 5659 5656 5653 5650 5647 5644 5640 5636 5632 5627 5622 5617 5610 5603 5595 5587 5579 5570 5562 5552 5541 5530 5519 5507 5495 5481 5468 5455 5442 5430
5666 5666 5666 5666 5666 5664 5663 5661 5659 5658 5656 5653 5651 5649 5646 5644 5641 5638 5635 5631 5627 5623 5619 5614 5608 5602 5595 5588 5580 5571 5562 5553 5544 5534 5523 5512 5500 5488 5477 5465 5451 5438 5426 5413
5655 5656 5655 5654 5654 5653 5652 5650 5648 5646 5644 5641 5639 5637 5634 5631 5629 5625 5622 5619 5614 5610 5605 5599 5593 5587 5579 5571 5563 5554 5544 5535 5525 5515 5504 5493 5481 5469 5458 5447 5437 5424 5412 5402
Wind_Speed
25 23 23 22 21 22 21 22 22 22 21 21 21 21 21 20 19 19 19 19 19 19 19 19 20 21 22 23 24 25 26 27 28 29 30 31 31 32 33 33 34 34 34 35
25 24 23 23 22 22 22 22 22 22 21 20 20 20 20 19 19 18 18 18 19 19 20 21 22 23 24 26 27 28 29 29 30 31 31 32 32 32 32 32 32 33 33 34
26 25 24 23 23 22 22 22 21 21 20 19 19 19 19 19 19 18 18 19 19 20 21 22 24 25 26 28 29 30 30 30 31 31 31 31 30 30 30 30 31 31 32 33
26 25 24 24 23 23 22 21 21 21 20 18 18 18 19 19 19 19 19 19 20 21 23 24 26 27 28 30 30 31 30 30 31 31 30 29 29 29 29 29 30 30 31 33
26 25 24 23 23 23 22 21 21 20 19 18 18 19 17 19 19 19 20 20 21 23 25 26 28 29 30 31 31 31 31 30 30 30 29 28 28 28 29 30 31 32 34 36
27 26 25 24 23 22 21 21 21 20 19 18 18 19 18 18 19 20 21 22 23 24 26 28 29 30 31 32 31 31 30 30 29 29 28 29 29 30 31 32 34 35 37 40
27 26 25 24 23 22 21 21 20 20 19 19 19 19 19 19 20 21 22 23 24 26 28 29 30 31 32 31 31 30 30 29 29 29 29 30 31 32 34 36 37 40 42 45
26 25 24 23 23 22 21 21 21 21 20 19 19 20 20 20 21 22 24 25 26 28 29 31 31 32 31 31 31 30 30 29 30 31 32 33 34 36 37 40 42 44 47 50
26 26 24 23 22 22 21 21 21 22 21 21 20 20 20 21 23 24 25 26 28 29 31 32 32 32 32 32 32 31 31 31 32 34 35 36 37 39 42 44 46 49 52 54
26 25 24 23 22 22 22 21 21 22 23 22 21 21 22 23 25 26 27 28 29 31 32 33 34 34 34 34 33 33 33 33 35 36 37 39 41 43 46 48 51 54 56 59
24 24 23 22 22 22 22 22 23 24 24 24 24 22 23 25 26 28 29 30 31 33 34 35 36 36 35 35 35 35 35 36 37 39 41 43 45 48 50 53 56 58 61 64
23 23 23 22 23 23 23 23 24 25 25 26 26 24 25 27 29 30 31 32 34 35 37 37 38 37 36 36 37 37 37 38 39 41 44 46 49 51 54 57 60 63 66 69
24 24 23 24 24 24 24 24 25 26 27 27 27 26 27 29 32 33 34 35 36 37 38 39 39 38 38 38 38 39 39 41 43 45 48 50 53 55 58 61 64 67 70 73
26 25 25 25 26 25 25 25 26 28 29 30 29 28 29 33 35 36 37 38 39 40 40 40 40 40 39 40 40 41 42 44 46 49 51 54 56 59 62 65 68 71 74 77
28 27 26 27 27 27 27 27 28 29 30 32 31 31 32 36 37 38 39 39 40 41 41 41 41 41 41 41 42 44 45 47 49 52 54 57 60 63 66 69 72 75 78 80
30 29 29 29 29 30 30 28 30 31 32 34 35 34 35 37 38 39 40 40 41 41 42 42 42 42 43 43 45 46 48 50 53 55 57 60 63 66 69 72 75 78 80 83
31 31 31 31 31 34 33 30 32 34 34 36 37 37 38 39 39 39 40 41 41 42 42 43 43 44 44 45 46 48 51 53 55 58 61 64 67 70 73 76 78 81 83 85
32 32 34 34 34 37 35 33 34 36 36 37 39 40 40 41 41 40 40 41 42 42 43 43 44 45 46 47 49 51 53 55 58 61 64 67 70 73 76 78 81 83 85 87
33 34 35 37 38 39 36 35 36 38 38 38 40 41 41 41 41 41 41 41 42 43 43 44 44 46 47 49 51 53 55 58 61 64 67 70 73 76 78 80 83 85 87 88
34 35 37 39 41 42 38 37 38 39 39 38 39 40 40 40 41 41 42 42 43 43 43 44 45 47 49 51 53 55 58 61 64 67 70 73 76 78 80 83 85 86 88 88
36 37 39 40 42 42 40 39 39 40 41 39 39 39 39 40 41 42 42 43 43 43 44 45 47 49 51 53 55 58 60 64 67 69 72 75 77 80 82 84 86 87 88 87
37 39 40 41 42 43 42 42 42 42 41 40 40 40 40 41 41 42 43 43 44 44 45 46 48 50 53 55 58 60 63 67 69 72 74 76 79 81 83 85 85 86 86 84
39 39 40 41 42 42 43 43 43 42 43 42 42 42 41 42 42 42 42 43 44 45 46 48 50 52 55 58 61 64 66 69 71 73 76 78 80 82 83 84 85 84 82 79
40 40 41 41 41 42 43 43 43 43 43 43 43 43 43 42 42 42 42 43 45 46 48 50 52 54 57 60 63 66 69 71 73 75 78 80 81 82 83 83 83 81 77 72
39 39 40 40 41 42 42 43 44 45 44 44 43 43 43 42 42 43 44 45 46 48 50 52 55 58 60 63 65 68 71 73 76 78 80 81 82 82 82 81 79 76 70 66
38 39 40 40 41 43 44 45 45 45 44 43 43 43 43 43 43 44 45 47 49 50 53 55 58 61 63 66 68 70 73 76 78 80 81 82 82 82 81 78 74 68 63 58
Wind_Direction
246 250 256 261 266 269 272 275 278 280 279 276 275 274 275 273 272 273 275 278 281 284 288 291 294 295 296 296 297 297 296 295 295 293 293 292 291 290 290 289 288 287 286 286
244 249 254 260 264 268 272 275 277 278 277 275 273 273 273 273 273 275 277 280 284 288 291 293 295 296 296 297 297 297 297 296 295 294 293 292 291 291 290 289 288 287 287 286
242 248 254 260 265 268 272 275 276 277 274 272 271 270 272 273 275 277 279 282 286 289 292 294 295 296 296 297 297 297 297 296 296 295 294 293 292 291 290 289 288 288 288 289
242 247 253 259 263 267 271 273 274 274 272 268 268 267 270 273 276 278 280 283 286 289 292 294 295 296 296 297 298 297 296 296 296 295 294 293 292 292 291 290 290 290 290 291
241 245 251 258 262 266 269 270 270 270 268 266 265 266 267 272 274 276 279 283 287 290 292 294 296 296 296 297 297 297 296 295 293 292 291 291 291 291 291 292 292 292 292 293
243 247 252 257 261 264 267 268 267 266 266 264 264 267 269 270 272 275 279 284 287 291 293 295 295 296 296 297 297 297 295 293 290 289 289 290 290 290 291 292 293 293 294 295
242 247 252 255 258 261 263 264 264 264 264 266 266 267 270 270 272 276 280 285 289 292 294 295 296 297 297 297 297 295 293 290 288 287 288 289 289 289 290 291 292 293 294 295
242 247 250 252 256 259 260 261 264 267 267 267 267 269 272 272 274 277 282 287 290 293 295 296 297 297 297 296 295 294 292 289 287 286 287 287 287 288 290 291 293 294 295 296
241 245 247 251 254 256 258 259 263 268 269 270 270 272 272 273 276 280 284 287 291 294 296 297 297 297 296 295 294 292 290 288 287 287 287 287 288 290 291 293 294 294 295 296
240 243 245 249 253 255 257 261 265 268 272 272 272 274 275 274 277 281 285 288 291 295 297 297 297 296 295 295 294 291 289 288 287 287 288 289 290 292 293 294 295 296 297 298
237 241 244 248 251 254 258 262 266 269 273 276 277 277 277 277 279 281 284 288 292 295 297 297 296 296 294 294 292 290 289 288 288 288 289 291 292 293 295 296 297 298 299 300
238 242 245 248 252 256 260 264 268 272 275 278 280 283 281 279 280 282 285 288 292 295 297 297 295 295 293 292 291 290 289 289 290 290 292 293 294 296 297 298 300 301 302 302
240 243 247 251 254 258 262 266 270 273 277 279 282 285 283 281 281 283 287 289 292 294 296 296 295 294 293 292 291 290 290 291 292 293 294 295 297 298 299 301 302 303 304 304
242 246 250 254 258 260 263 268 272 276 280 281 282 283 283 282 282 284 287 289 291 293 294 295 294 293 292 292 291 291 291 292 293 295 296 297 299 300 301 303 304 305 305 305
246 250 254 257 260 262 265 269 273 278 280 282 284 283 282 282 284 286 288 289 291 292 293 294 293 292 292 291 292 292 293 294 295 296 298 299 301 302 303 304 305 306 306 307
251 254 256 258 261 264 266 271 275 277 280 282 283 284 282 283 285 286 288 289 290 291 292 292 292 291 291 292 292 293 294 295 297 298 299 301 302 303 304 305 306 307 307 308
252 257 259 261 263 266 269 273 276 279 280 282 284 284 284 284 285 286 288 289 290 291 291 291 291 291 291 292 293 294 295 297 298 299 301 302 303 305 306 307 307 308 309 309
254 258 262 264 265 267 273 275 278 279 280 282 284 284 285 285 286 287 288 289 289 290 290 290 290 291 292 293 294 295 296 298 299 301 302 304 305 306 307 308 308 309 309 310
255 259 263 266 268 270 273 278 280 280 281 282 283 284 285 286 287 287 288 288 289 290 290 290 290 291 292 293 295 296 298 299 301 302 304 305 306 307 308 309 309 310 310 311
257 260 264 268 272 275 277 279 281 282 284 284 284 285 286 286 287 288 288 289 289 289 289 289 290 292 293 294 296 298 299 301 302 304 305 306 307 308 309 310 310 311 312 313
257 261 266 270 274 277 281 284 285 286 287 288 288 287 286 287 288 288 288 288 288 289 289 290 291 292 294 296 297 299 301 302 304 305 307 308 308 309 310 311 312 312 313 313
259 263 267 270 274 279 282 284 286 287 288 290 290 289 288 288 289 288 288 288 288 289 290 291 292 294 296 298 299 300 302 303 305 306 308 308 309 310 311 312 313 314 314 314
262 265 269 271 275 278 281 283 285 287 288 289 289 289 288 288 288 288 288 288 289 290 291 292 294 296 297 299 301 302 303 305 306 307 308 309 310 311 312 313 314 315 315 314
264 267 270 273 275 278 280 283 285 287 288 289 288 288 288 288 287 287 288 288 289 291 292 294 295 297 299 301 302 303 304 306 307 308 309 310 311 312 313 314 315 315 314 313
267 270 272 274 275 277 279 282 285 286 288 288 287 287 287 287 287 287 288 290 291 293 294 295 297 299 300 302 303 304 305 307 308 309 310 311 312 313 314 315 315 315 314 312
269 272 273 274 275 277 280 282 284 285 286 286 285 286 286 286 286 287 289 291 292 294 295 297 299 300 302 303 304 305 307 308 309 310 311 312 313 314 314 315 315 314 313 312